Three Rivers, MI

7:24 AM EDT on September 25, 2016 (GMT -0400)
Three Rivers Municipal-Haines

Weather History for KHAI - February, 2007

Change the Weather History Date:

Thursday, February 8, 2007

  Actual Average Record
Temperature  
Mean Temperature 12 °F -  
Max Temperature 19 °F 31 °F 49 °F (1965)
Min Temperature 5 °F 11 °F -16 °F (1967)
Degree Days  
Heating Degree Days 53    
Moisture  
Dew Point 5 °F    
Average Humidity 70    
Maximum Humidity 85    
Minimum Humidity 49    
Precipitation  
Precipitation 0.00 in - - ()
Sea Level Pressure  
Sea Level Pressure 30.17 in    
Wind  
Wind Speed 9 mph (WSW)    
Max Wind Speed 20 mph    
Max Gust Speed 25 mph    
Visibility 8 miles    
Events Snow    
Averages and records for this station are not official NWS values.
T = Trace of Precipitation, MM = Missing Value Source: NWS Daily Summary

Daily Weather History Graph

Daily Weather History Graph

Search for Another Location

Airport or City:

Trip Planner

Search our weather history database for the weather conditions in past years. The results will help you decide how hot, cold, wet, or windy it might be!

Date:

Astronomy

Feb. 08, 2007 Rise Set
Actual Time 7:47 AM EST 6:06 PM EST
Civil Twilight 7:18 AM EST 6:35 PM EST
Nautical Twilight 6:45 AM EST 7:08 PM EST
Astronomical Twilight 6:13 AM EST 7:40 PM EST
Moon No Moon Rise 10:19 AM EST (2/8)
Length of Visible Light 11h 16m
Length of Day
10h 18m
Waning Gibbous, 66% of the Moon is Illuminated
Feb 8
Waning Gibbous
Feb 10
Last Quarter
Feb 17
New
Feb 24
First Quarter
Mar 3
Full

Hourly Weather History & Observations

Time (EST) Temp. Windchill Dew Point Humidity Pressure Visibility Wind Dir Wind Speed Gust Speed Precip Events Conditions
12:16 AM 6.8 °F -6.9 °F -0.4 °F 72% 30.13 in 10.0 mi SW 9.2 mph - N/A Snow Light Snow
12:36 AM 5.0 °F -8.1 °F -2.2 °F 72% 30.13 in 10.0 mi SSW 8.1 mph - N/A   Overcast
12:56 AM 5.0 °F -8.1 °F -2.2 °F 72% 30.13 in 10.0 mi SW 8.1 mph - N/A Snow Light Snow
1:16 AM 5.0 °F -5.6 °F -0.4 °F 78% 30.12 in 10.0 mi SW 5.8 mph - N/A Snow Light Snow
1:36 AM 6.8 °F -2.0 °F -0.4 °F 72% 30.12 in 10.0 mi SW 4.6 mph - N/A Snow Light Snow
1:56 AM 6.8 °F -3.5 °F -0.4 °F 72% 30.11 in 10.0 mi SW 5.8 mph - N/A Snow Light Snow
2:16 AM 8.6 °F -1.3 °F 1.4 °F 73% 30.12 in 5.0 mi SW 5.8 mph - N/A Snow Light Snow
2:36 AM 8.6 °F -1.3 °F 1.4 °F 73% 30.12 in 5.0 mi SW 5.8 mph - N/A Snow Light Snow
2:56 AM 8.6 °F -1.3 °F 3.2 °F 79% 30.12 in 5.0 mi SW 5.8 mph - N/A Snow Light Snow
3:16 AM 10.4 °F -0.4 °F 6.8 °F 85% 30.13 in 7.0 mi WSW 6.9 mph - N/A Snow Light Snow
3:36 AM 10.4 °F 4.0 °F 6.8 °F 85% 30.14 in 7.0 mi SW 3.5 mph - N/A Snow Light Snow
3:56 AM 15.8 °F -1.1 °F 6.8 °F 68% 30.13 in 7.0 mi WNW 19.6 mph 25.3 mph N/A Snow Light Snow
4:16 AM 15.8 °F 0.9 °F 6.8 °F 68% 30.13 in 10.0 mi West 15.0 mph 20.7 mph N/A   Overcast
4:36 AM 15.8 °F 2.1 °F 6.8 °F 68% 30.15 in 10.0 mi WNW 12.7 mph 20.7 mph N/A Snow Light Snow
4:56 AM 15.8 °F 3.4 °F 6.8 °F 68% 30.16 in 10.0 mi WNW 10.4 mph - N/A Snow Light Snow
5:16 AM 15.8 °F 8.6 °F 6.8 °F 68% 30.17 in 10.0 mi WNW 4.6 mph - N/A Snow Light Snow
5:36 AM 14.0 °F 2.0 °F 6.8 °F 73% 30.18 in 5.0 mi NW 9.2 mph - N/A Snow Light Snow
5:56 AM 14.0 °F -1.4 °F 6.8 °F 73% 30.18 in 5.0 mi WNW 15.0 mph 19.6 mph N/A Snow Light Snow
6:16 AM 14.0 °F 1.2 °F 6.8 °F 73% 30.19 in 7.0 mi NW 10.4 mph - N/A Snow Light Snow
6:36 AM 14.0 °F 3.9 °F 6.8 °F 73% 30.20 in 10.0 mi WNW 6.9 mph - N/A Snow Light Snow
6:56 AM 14.0 °F 3.9 °F 8.6 °F 79% 30.20 in 7.0 mi WNW 6.9 mph - N/A Snow Light Snow
7:16 AM 14.0 °F 5.1 °F 8.6 °F 79% 30.20 in 7.0 mi WNW 5.8 mph - N/A Snow Light Snow
7:36 AM 14.0 °F 6.5 °F 8.6 °F 79% 30.21 in 5.0 mi West 4.6 mph - N/A Snow Light Snow
7:56 AM 12.2 °F 2.9 °F 8.6 °F 85% 30.21 in 4.0 mi WNW 5.8 mph - N/A Snow Light Snow
8:16 AM 12.2 °F 6.1 °F 8.6 °F 85% 30.22 in 3.0 mi West 3.5 mph - N/A Snow Light Snow
8:36 AM 14.0 °F 5.1 °F 8.6 °F 79% 30.22 in 4.0 mi West 5.8 mph - N/A Snow Light Snow
8:56 AM 14.0 °F 6.5 °F 8.6 °F 79% 30.22 in 3.0 mi WSW 4.6 mph - N/A Snow Light Snow
9:17 AM 15.8 °F 7.2 °F 10.4 °F 79% 30.22 in 2.5 mi West 5.8 mph - N/A Snow Light Snow
9:36 AM 15.8 °F 4.2 °F 10.4 °F 79% 30.22 in 5.0 mi West 9.2 mph - N/A Snow Light Snow
9:56 AM 15.8 °F 6.1 °F 10.4 °F 79% 30.23 in 5.0 mi WSW 6.9 mph - N/A Snow Light Snow
10:16 AM 15.8 °F 6.1 °F 10.4 °F 79% 30.23 in 10.0 mi West 6.9 mph - N/A   Scattered Clouds
10:36 AM 17.6 °F 4.3 °F 10.4 °F 73% 30.23 in 10.0 mi West 12.7 mph - N/A   Scattered Clouds
10:56 AM 17.6 °F 5.7 °F 10.4 °F 73% 30.23 in 10.0 mi West 10.4 mph 17.3 mph N/A Snow Light Snow
11:16 AM 17.6 °F 3.7 °F 10.4 °F 73% 30.23 in 7.0 mi WNW 13.8 mph 19.6 mph N/A Snow Light Snow
11:36 AM 17.6 °F 5.0 °F 10.4 °F 73% 30.23 in 10.0 mi West 11.5 mph 18.4 mph N/A Snow Light Snow
11:56 AM 19.4 °F 6.6 °F 10.4 °F 68% 30.22 in 10.0 mi WSW 12.7 mph 18.4 mph N/A   Overcast
12:16 PM 19.4 °F 6.0 °F 10.4 °F 68% 30.22 in 10.0 mi West 13.8 mph - N/A   Mostly Cloudy
12:36 PM 19.4 °F 7.9 °F 8.6 °F 63% 30.23 in 10.0 mi West 10.4 mph - N/A   Mostly Cloudy
12:56 PM 19.4 °F 7.2 °F 10.4 °F 68% 30.22 in 10.0 mi West 11.5 mph 16.1 mph N/A   Mostly Cloudy
1:16 PM 17.6 °F 4.3 °F 10.4 °F 73% 30.22 in 5.0 mi SW 12.7 mph 18.4 mph N/A Snow Light Snow
1:37 PM 17.6 °F 5.7 °F 8.6 °F 68% 30.21 in 10.0 mi SW 10.4 mph - N/A   Mostly Cloudy
1:57 PM 17.6 °F 5.0 °F 8.6 °F 68% 30.20 in 10.0 mi WSW 11.5 mph - N/A   Scattered Clouds
2:16 PM 17.6 °F 5.0 °F 8.6 °F 68% 30.19 in 10.0 mi WSW 11.5 mph - N/A   Scattered Clouds
2:36 PM 17.6 °F 3.2 °F 8.6 °F 68% 30.18 in 10.0 mi West 15.0 mph 21.9 mph N/A   Scattered Clouds
3:16 PM 17.6 °F 3.2 °F 3.2 °F 53% 30.16 in 10.0 mi WSW 15.0 mph 20.7 mph N/A   Clear
3:36 PM 17.6 °F 5.7 °F 1.4 °F 49% 30.16 in 10.0 mi WSW 10.4 mph 18.4 mph N/A   Clear
3:56 PM 15.8 °F 2.1 °F 3.2 °F 58% 30.16 in 10.0 mi WSW 12.7 mph - N/A   Clear
4:16 PM 15.8 °F 5.1 °F 3.2 °F 58% 30.16 in 10.0 mi WSW 8.1 mph - N/A   Clear
4:36 PM 15.8 °F 3.4 °F 1.4 °F 53% 30.16 in 10.0 mi SW 10.4 mph - N/A   Clear
4:56 PM 14.0 °F 2.0 °F 1.4 °F 57% 30.15 in 10.0 mi SW 9.2 mph - N/A   Clear
5:16 PM 14.0 °F -0.8 °F 1.4 °F 57% 30.15 in 10.0 mi West 13.8 mph - N/A   Clear
5:36 PM 12.2 °F 1.7 °F 1.4 °F 62% 30.15 in 10.0 mi SW 6.9 mph - N/A   Mostly Cloudy
5:56 PM 12.2 °F -0.2 °F 1.4 °F 62% 30.14 in 10.0 mi WSW 9.2 mph 16.1 mph N/A Snow Light Snow
6:16 PM 12.2 °F -1.0 °F 3.2 °F 67% 30.14 in 7.0 mi WSW 10.4 mph - N/A Snow Light Snow
6:36 PM 12.2 °F -0.2 °F 3.2 °F 67% 30.14 in 5.0 mi SW 9.2 mph - N/A Snow Light Snow
7:16 PM 10.4 °F -3.3 °F 1.4 °F 67% 30.14 in 10.0 mi SW 10.4 mph - N/A Snow Light Snow
7:36 PM 8.6 °F -4.7 °F 1.4 °F 73% 30.15 in 10.0 mi SW 9.2 mph - N/A Snow Light Snow
7:56 PM 8.6 °F -3.7 °F -0.4 °F 67% 30.15 in 10.0 mi SW 8.1 mph - N/A   Clear
8:17 PM 8.6 °F -3.7 °F -0.4 °F 67% 30.14 in 10.0 mi SW 8.1 mph - N/A   Clear
8:36 PM 8.6 °F -3.7 °F -0.4 °F 67% 30.14 in 10.0 mi SW 8.1 mph - N/A   Clear
8:56 PM 8.6 °F -2.6 °F -0.4 °F 67% 30.14 in 10.0 mi WSW 6.9 mph - N/A   Clear
9:16 PM 8.6 °F -2.6 °F -0.4 °F 67% 30.13 in 10.0 mi SW 6.9 mph - N/A   Clear
9:36 PM 8.6 °F -2.6 °F -0.4 °F 67% 30.13 in 10.0 mi SW 6.9 mph - N/A   Clear
9:56 PM 6.8 °F -2.0 °F -0.4 °F 72% 30.14 in 10.0 mi WSW 4.6 mph - N/A   Clear
10:16 PM 6.8 °F -0.1 °F -0.4 °F 72% 30.15 in 10.0 mi SW 3.5 mph - N/A   Clear
10:36 PM 8.6 °F -1.3 °F 1.4 °F 73% 30.15 in 10.0 mi WSW 5.8 mph - N/A   Clear
10:56 PM 6.8 °F -3.5 °F 1.4 °F 79% 30.16 in 10.0 mi SW 5.8 mph - N/A   Clear
11:16 PM 8.6 °F -1.3 °F 1.4 °F 73% 30.16 in 10.0 mi WSW 5.8 mph - N/A   Mostly Cloudy
11:36 PM 8.6 °F -1.3 °F 1.4 °F 73% 30.15 in 10.0 mi SW 5.8 mph - N/A Snow Light Snow
11:56 PM 8.6 °F -2.6 °F 1.4 °F 73% 30.16 in 10.0 mi SW 6.9 mph - N/A Snow Light Snow